Powrót do katalogu

UHETSAT

AktywnyNaukaSSO
NORAD 58466·PAYLOAD·🇮🇹 Italy

Wystrzelony Dec 1, 2023 z Vandenberg Space Force Base

Loading…

Następne Przeloty (najbliższe 24 godziny)

TLE

ŚwieżeSource: Space-Track

Epoka: Sep 14, 2026, 14:58 UTC

1 58466U 23185E   26257.62362856  .00005507  00000-0  17916-3 0  9992
2 58466  97.3388 324.3035 0012313   0.4071 359.7179 15.32216772154985

Śledź UHETSAT w czasie rzeczywistym z AllMySat

Download on the App Store